📊 Raw Sensor Data
Showing records 41451 to 41475 of 84,983 total
| ID | Distance (ft) | Battery V | Battery A | Int Temp (°F) | Int Humid (%) | Ext Temp (°F) | Solar V | RSSI | SNR | Time Stamp |
|---|---|---|---|---|---|---|---|---|---|---|
| 43545 | 15.4 | 3.91 | -10 | 51 | 42 | 53 | 3.20 | -68 | 8 | 06/15/2025 05:45 AM |
| 43544 | 15.4 | 3.92 | -5 | 50 | 42 | 53 | 1.70 | -68 | 8 | 06/15/2025 05:30 AM |
| 43543 | 15.4 | 3.92 | -5 | 50 | 42 | 54 | 0.00 | -67 | 8 | 06/15/2025 05:15 AM |
| 43542 | 15.4 | 3.99 | -5 | 49 | 42 | 52 | 0.00 | -67 | 8 | 06/15/2025 05:00 AM |
| 43541 | 15.4 | 3.92 | -5 | 49 | 43 | 51 | 0.00 | -67 | 8 | 06/15/2025 04:45 AM |
| 43540 | 15.4 | 3.99 | -5 | 48 | 43 | 51 | 0.10 | -68 | 9 | 06/15/2025 04:30 AM |
| 43539 | 15.4 | 3.92 | -5 | 48 | 43 | 51 | 0.10 | -66 | 8 | 06/15/2025 04:15 AM |
| 43538 | 15.4 | 3.99 | -5 | 47 | 43 | 50 | 0.00 | -68 | 8 | 06/15/2025 04:00 AM |
| 43537 | 15.5 | 3.92 | -5 | 47 | 43 | 50 | 0.00 | -68 | 7 | 06/15/2025 03:45 AM |
| 43536 | 15.5 | 3.99 | -5 | 47 | 44 | 49 | 0.00 | -68 | 8 | 06/15/2025 03:30 AM |
| 43535 | 15.5 | 3.93 | -5 | 48 | 44 | 52 | 0.00 | -68 | 7 | 06/15/2025 03:15 AM |
| 43534 | 15.5 | 3.93 | -5 | 48 | 44 | 53 | 0.00 | -67 | 8 | 06/15/2025 03:00 AM |
| 43533 | 15.4 | 3.93 | -5 | 48 | 44 | 52 | 0.10 | -68 | 8 | 06/15/2025 02:45 AM |
| 43532 | 15.5 | 3.99 | -5 | 49 | 44 | 52 | 0.00 | -67 | 8 | 06/15/2025 02:30 AM |
| 43531 | 15.5 | 3.93 | -5 | 49 | 44 | 51 | 0.00 | -67 | 8 | 06/15/2025 02:15 AM |
| 43530 | 15.5 | 3.99 | -5 | 50 | 44 | 52 | 0.00 | -68 | 8 | 06/15/2025 02:00 AM |
| 43529 | 15.5 | 3.93 | -5 | 50 | 44 | 53 | 0.00 | -67 | 8 | 06/15/2025 01:45 AM |
| 43528 | 15.4 | 3.93 | -5 | 51 | 44 | 54 | 0.00 | -69 | 8 | 06/15/2025 01:30 AM |
| 43527 | 15.5 | 4.00 | -5 | 51 | 45 | 54 | 0.00 | -67 | 9 | 06/15/2025 01:15 AM |
| 43526 | 15.5 | 3.93 | -5 | 51 | 45 | 52 | 0.00 | -67 | 8 | 06/15/2025 01:00 AM |
| 43525 | 15.5 | 4.00 | -5 | 53 | 45 | 54 | 0.00 | -67 | 8 | 06/15/2025 12:45 AM |
| 43524 | 15.5 | 3.94 | -5 | 54 | 45 | 55 | 0.00 | -67 | 8 | 06/15/2025 12:30 AM |
| 43523 | 15.5 | 3.93 | -5 | 55 | 44 | 56 | 0.00 | -67 | 8 | 06/15/2025 12:15 AM |
| 43522 | 15.4 | 3.93 | -5 | 55 | 45 | 57 | 0.00 | -71 | 7 | 06/15/2025 12:00 AM |
| 43521 | 15.4 | 4.00 | -5 | 55 | 45 | 57 | 0.00 | -67 | 8 | 06/14/2025 11:45 PM |